Location: Unspecified
(0.0000°N, 0.0000°E)
Time: 22:00:52
(UTC+00:00)

Vanguard 3 - Pass Details

Date: 15 December 2017
Orbit: 508 x 3264 km, 33.4° (Epoch: 18 January)

Event Time Altitude Azimuth Distance (km) Brightness Sun altitude
Rises 05:15:53 0° 224° (SW) 7,208 11.8 -9.0°
Reaches altitude 10° 05:21:44 10° 216° (SW) 6,043 11.5 -7.7°
Maximum altitude 05:37:40 37° 155° (SSE) 3,374 10.8 -4.0°
Drops below altitude 10° 05:48:10 10° 92° (E) 4,058 12.2 -1.6°
Sets 05:51:10 0° 83° (E) 4,701 12.3 -0.9°
